Time,TemperatureF,DewpointF,PressureIn,WindDirection,WindDirectionDegrees,WindSpeedMPH,WindSpeedGustMPH,Humidity,HourlyPrecipIn,Conditions,Clouds,dailyrainin,SoftwareType,DateUTC
2013-06-08 00:02:00,54.5,48.8,29.93,SSW,202,0.0,0.0,81,0.00,,,0.00,WUHU21636XXSP,2013-06-08 05:02:00,
2013-06-08 00:07:00,54.5,48.8,29.93,SSW,202,0.0,0.0,81,0.00,,,0.00,WUHU21636XXSP,2013-06-08 05:07:00,
2013-06-08 00:12:00,54.5,48.8,29.93,SSW,202,0.0,0.0,81,0.00,,,0.00,WUHU21636XXSP,2013-06-08 05:12:00,
2013-06-08 00:17:00,54.5,48.8,29.92,SSW,202,0.0,0.0,81,0.00,,,0.00,WUHU21636XXSP,2013-06-08 05:17:00,
2013-06-08 00:22:00,54.5,48.8,29.92,SSW,202,0.0,0.0,81,0.00,,,0.00,WUHU21636XXSP,2013-06-08 05:22:00,
2013-06-08 00:27:00,54.5,48.8,29.92,SSW,202,0.0,0.0,81,0.00,,,0.00,WUHU21636XXSP,2013-06-08 05:27:00,
2013-06-08 00:32:00,54.5,48.8,29.92,SSW,202,0.0,0.0,81,0.00,,,0.00,WUHU21636XXSP,2013-06-08 05:32:00,
2013-06-08 00:37:00,54.4,48.7,29.92,SSW,202,0.0,0.0,81,0.00,,,0.00,WUHU21636XXSP,2013-06-08 05:37:00,
2013-06-08 00:42:00,54.2,48.8,29.92,SSW,202,0.0,0.0,82,0.00,,,0.00,WUHU21636XXSP,2013-06-08 05:42:00,
2013-06-08 00:47:00,54.2,48.8,29.92,SSW,202,0.0,0.0,82,0.00,,,0.00,WUHU21636XXSP,2013-06-08 05:47:00,
2013-06-08 00:52:00,54.2,48.8,29.92,SSW,202,0.0,0.0,82,0.00,,,0.00,WUHU21636XXSP,2013-06-08 05:52:00,
2013-06-08 00:57:00,54.2,48.8,29.92,SSW,202,0.0,0.0,82,0.00,,,0.00,WUHU21636XXSP,2013-06-08 05:57:00,
2013-06-08 01:02:00,54.2,48.8,29.92,SSW,202,0.0,0.0,82,0.00,,,0.00,WUHU21636XXSP,2013-06-08 06:02:00,
2013-06-08 01:07:00,54.2,48.8,29.92,SSW,202,0.0,0.0,82,0.00,,,0.00,WUHU21636XXSP,2013-06-08 06:07:00,
2013-06-08 01:12:00,54.0,48.6,29.92,SSW,202,0.0,0.0,82,0.00,,,0.00,WUHU21636XXSP,2013-06-08 06:12:00,
2013-06-08 01:17:00,54.0,48.6,29.92,SSW,202,0.0,0.0,82,0.00,,,0.00,WUHU21636XXSP,2013-06-08 06:17:00,
2013-06-08 01:22:00,53.8,48.4,29.92,SSW,202,0.0,0.0,82,0.00,,,0.00,WUHU21636XXSP,2013-06-08 06:22:00,
2013-06-08 01:27:00,53.8,48.4,29.92,SSW,202,0.0,0.0,82,0.00,,,0.00,WUHU21636XXSP,2013-06-08 06:27:00,
2013-06-08 01:32:00,53.8,48.4,29.92,SSW,202,0.0,0.0,82,0.00,,,0.00,WUHU21636XXSP,2013-06-08 06:32:00,
2013-06-08 01:37:00,53.8,48.4,29.92,SSW,202,0.0,0.0,82,0.00,,,0.00,WUHU21636XXSP,2013-06-08 06:37:00,
2013-06-08 01:42:00,53.8,48.4,29.92,SSW,202,0.0,0.0,82,0.00,,,0.00,WUHU21636XXSP,2013-06-08 06:42:00,
2013-06-08 01:47:00,53.8,48.4,29.92,SSW,202,0.0,0.0,82,0.00,,,0.00,WUHU21636XXSP,2013-06-08 06:47:00,
2013-06-08 01:52:00,53.8,48.4,29.92,SSW,202,0.0,0.0,82,0.00,,,0.00,WUHU21636XXSP,2013-06-08 06:52:00,
2013-06-08 01:57:00,53.8,48.7,29.92,SSW,202,0.0,0.0,83,0.00,,,0.00,WUHU21636XXSP,2013-06-08 06:57:00,
2013-06-08 02:02:00,54.0,48.9,29.92,SSW,202,0.0,0.0,83,0.00,,,0.00,WUHU21636XXSP,2013-06-08 07:02:00,
2013-06-08 02:07:00,54.0,48.9,29.92,SSW,202,0.0,0.0,83,0.00,,,0.00,WUHU21636XXSP,2013-06-08 07:07:00,
2013-06-08 02:12:00,54.0,48.9,29.92,SSW,202,0.0,0.0,83,0.00,,,0.00,WUHU21636XXSP,2013-06-08 07:12:00,
2013-06-08 02:17:00,54.0,48.9,29.92,SSW,202,0.0,0.0,83,0.00,,,0.00,WUHU21636XXSP,2013-06-08 07:17:00,
2013-06-08 02:22:00,54.0,48.9,29.92,SSW,202,0.0,0.0,83,0.00,,,0.00,WUHU21636XXSP,2013-06-08 07:22:00,
2013-06-08 02:27:00,54.0,48.9,29.92,SSW,202,0.0,0.0,83,0.00,,,0.00,WUHU21636XXSP,2013-06-08 07:27:00,
2013-06-08 02:32:00,54.0,48.9,29.92,SSW,202,0.0,0.0,83,0.00,,,0.00,WUHU21636XXSP,2013-06-08 07:32:00,
2013-06-08 02:37:00,54.0,48.9,29.92,SSW,202,0.0,0.0,83,0.00,,,0.00,WUHU21636XXSP,2013-06-08 07:37:00,
2013-06-08 02:42:00,54.0,48.9,29.92,SSW,202,0.0,0.0,83,0.00,,,0.00,WUHU21636XXSP,2013-06-08 07:42:00,
2013-06-08 02:47:00,54.2,49.1,29.92,SSW,202,0.0,0.0,83,0.00,,,0.00,WUHU21636XXSP,2013-06-08 07:47:00,
2013-06-08 02:52:00,54.2,49.1,29.92,SSW,202,0.0,0.0,83,0.00,,,0.00,WUHU21636XXSP,2013-06-08 07:52:00,
2013-06-08 02:57:00,54.2,49.1,29.92,SSW,202,0.0,0.0,83,0.00,,,0.00,WUHU21636XXSP,2013-06-08 07:57:00,
2013-06-08 03:02:00,54.2,49.1,29.92,SSW,202,0.0,0.0,83,0.00,,,0.00,WUHU21636XXSP,2013-06-08 08:02:00,
2013-06-08 03:07:00,54.2,49.1,29.92,SSW,202,0.0,0.0,83,0.00,,,0.00,WUHU21636XXSP,2013-06-08 08:07:00,
2013-06-08 03:12:00,54.2,49.1,29.92,SSW,202,0.0,0.0,83,0.00,,,0.00,WUHU21636XXSP,2013-06-08 08:12:00,
2013-06-08 03:17:00,54.2,49.1,29.92,SSW,202,0.0,0.0,83,0.00,,,0.00,WUHU21636XXSP,2013-06-08 08:17:00,
2013-06-08 03:22:00,54.2,49.1,29.92,SSW,202,0.0,0.0,83,0.00,,,0.00,WUHU21636XXSP,2013-06-08 08:22:00,
2013-06-08 03:27:00,54.2,49.1,29.92,SSW,202,0.0,0.0,83,0.00,,,0.00,WUHU21636XXSP,2013-06-08 08:27:00,
2013-06-08 03:32:00,54.2,49.1,29.92,SSW,202,0.0,0.0,83,0.00,,,0.00,WUHU21636XXSP,2013-06-08 08:32:00,
2013-06-08 03:37:00,54.4,49.4,29.92,SSW,202,0.0,0.0,83,0.00,,,0.00,WUHU21636XXSP,2013-06-08 08:37:00,
2013-06-08 03:42:00,54.5,49.5,29.92,SSW,202,0.0,0.0,83,0.00,,,0.00,WUHU21636XXSP,2013-06-08 08:42:00,
2013-06-08 03:47:00,54.5,49.5,29.92,SSW,202,0.0,0.0,83,0.00,,,0.00,WUHU21636XXSP,2013-06-08 08:47:00,
2013-06-08 03:52:00,54.5,49.5,29.92,SSW,202,0.0,0.0,83,0.00,,,0.00,WUHU21636XXSP,2013-06-08 08:52:00,
2013-06-08 03:57:00,54.5,49.5,29.92,SSW,202,0.0,0.0,83,0.00,,,0.00,WUHU21636XXSP,2013-06-08 08:57:00,
2013-06-08 04:02:00,54.5,49.5,29.92,SSW,202,0.0,0.0,83,0.00,,,0.00,WUHU21636XXSP,2013-06-08 09:02:00,
2013-06-08 04:07:00,54.5,49.5,29.92,SSW,202,0.0,0.0,83,0.00,,,0.00,WUHU21636XXSP,2013-06-08 09:07:00,
2013-06-08 04:12:00,54.5,49.5,29.92,SSW,202,0.0,0.0,83,0.00,,,0.00,WUHU21636XXSP,2013-06-08 09:12:00,
2013-06-08 04:17:00,54.5,49.5,29.92,SSW,202,0.0,0.0,83,0.00,,,0.00,WUHU21636XXSP,2013-06-08 09:17:00,
2013-06-08 04:22:00,54.5,49.5,29.92,SSW,202,0.0,0.0,83,0.00,,,0.00,WUHU21636XXSP,2013-06-08 09:22:00,
2013-06-08 04:27:00,54.5,49.5,29.92,SSW,202,0.0,0.0,83,0.00,,,0.00,WUHU21636XXSP,2013-06-08 09:27:00,
2013-06-08 04:32:00,54.5,49.5,29.92,SSW,202,0.0,0.0,83,0.00,,,0.00,WUHU21636XXSP,2013-06-08 09:32:00,
2013-06-08 04:37:00,54.5,49.5,29.92,SSW,202,0.0,0.0,83,0.00,,,0.00,WUHU21636XXSP,2013-06-08 09:37:00,
2013-06-08 04:42:00,54.5,49.5,29.92,SSW,202,0.0,0.0,83,0.00,,,0.00,WUHU21636XXSP,2013-06-08 09:42:00,
2013-06-08 04:47:00,54.5,49.5,29.92,SSW,202,0.0,0.0,83,0.00,,,0.00,WUHU21636XXSP,2013-06-08 09:47:00,
2013-06-08 04:52:00,54.5,49.5,29.92,SSW,202,0.0,0.0,83,0.00,,,0.00,WUHU21636XXSP,2013-06-08 09:52:00,
2013-06-08 04:57:00,54.4,49.4,29.92,SSW,202,0.0,0.0,83,0.00,,,0.00,WUHU21636XXSP,2013-06-08 09:57:00,
2013-06-08 05:02:00,54.5,49.5,29.92,SSW,202,0.0,0.0,83,0.00,,,0.00,WUHU21636XXSP,2013-06-08 10:02:00,
2013-06-08 05:07:00,54.4,49.4,29.92,SSW,202,0.0,0.0,83,0.00,,,0.00,WUHU21636XXSP,2013-06-08 10:07:00,
2013-06-08 05:12:00,54.2,49.1,29.93,SSW,202,0.0,0.0,83,0.00,,,0.00,WUHU21636XXSP,2013-06-08 10:12:00,
2013-06-08 05:17:00,54.2,49.1,29.93,SSW,202,0.0,0.0,83,0.00,,,0.00,WUHU21636XXSP,2013-06-08 10:17:00,
2013-06-08 05:22:00,54.2,49.1,29.93,SSW,202,0.0,0.0,83,0.00,,,0.00,WUHU21636XXSP,2013-06-08 10:22:00,
2013-06-08 05:27:00,54.2,49.1,29.93,SSW,202,0.0,0.0,83,0.00,,,0.00,WUHU21636XXSP,2013-06-08 10:27:00,
2013-06-08 05:32:00,54.2,49.1,29.93,SSW,202,0.0,0.0,83,0.00,,,0.00,WUHU21636XXSP,2013-06-08 10:32:00,
2013-06-08 05:37:00,54.2,49.1,29.93,SSW,202,0.0,0.0,83,0.00,,,0.00,WUHU21636XXSP,2013-06-08 10:37:00,
2013-06-08 05:42:00,54.2,49.1,29.92,SSW,202,0.0,0.0,83,0.00,,,0.00,WUHU21636XXSP,2013-06-08 10:42:00,
2013-06-08 05:47:00,54.2,49.1,29.92,SSW,202,0.0,0.0,83,0.00,,,0.00,WUHU21636XXSP,2013-06-08 10:47:00,
2013-06-08 05:52:00,54.2,49.1,29.92,SSW,202,0.0,0.0,83,0.00,,,0.00,WUHU21636XXSP,2013-06-08 10:52:00,
2013-06-08 05:57:00,54.2,49.1,29.92,SSW,202,0.0,0.0,83,0.00,,,0.00,WUHU21636XXSP,2013-06-08 10:57:00,
2013-06-08 06:02:00,54.2,49.1,29.92,SSW,202,0.0,0.0,83,0.00,,,0.00,WUHU21636XXSP,2013-06-08 11:02:00,
2013-06-08 06:07:00,54.2,49.1,29.92,SSW,202,0.0,0.0,83,0.00,,,0.00,WUHU21636XXSP,2013-06-08 11:07:00,
2013-06-08 06:12:00,54.0,48.9,29.91,SSW,202,0.0,0.0,83,0.00,,,0.00,WUHU21636XXSP,2013-06-08 11:12:00,
2013-06-08 06:17:00,54.0,48.9,29.91,SSW,202,0.0,0.0,83,0.00,,,0.00,WUHU21636XXSP,2013-06-08 11:17:00,
2013-06-08 06:22:00,54.2,49.1,29.92,SSW,202,0.0,0.0,83,0.00,,,0.00,WUHU21636XXSP,2013-06-08 11:22:00,
2013-06-08 06:27:00,54.2,49.1,29.92,SSW,202,0.0,0.0,83,0.00,,,0.00,WUHU21636XXSP,2013-06-08 11:27:00,
2013-06-08 06:32:00,54.2,49.1,29.92,SSW,202,0.0,0.0,83,0.00,,,0.00,WUHU21636XXSP,2013-06-08 11:32:00,
2013-06-08 06:37:00,54.4,49.4,29.92,SSW,202,0.0,0.0,83,0.00,,,0.00,WUHU21636XXSP,2013-06-08 11:37:00,
2013-06-08 06:42:00,54.5,49.5,29.92,SSW,202,0.0,0.0,83,0.00,,,0.00,WUHU21636XXSP,2013-06-08 11:42:00,
2013-06-08 06:47:00,54.5,49.5,29.92,SSW,202,0.0,0.0,83,0.00,,,0.00,WUHU21636XXSP,2013-06-08 11:47:00,
2013-06-08 06:52:00,54.5,49.5,29.92,SSW,202,0.0,0.0,83,0.00,,,0.00,WUHU21636XXSP,2013-06-08 11:52:00,
2013-06-08 06:57:00,54.5,49.5,29.92,SSW,202,0.0,0.0,83,0.00,,,0.00,WUHU21636XXSP,2013-06-08 11:57:00,
2013-06-08 07:02:00,54.5,49.8,29.92,SSW,202,0.0,0.0,84,0.00,,,0.00,WUHU21636XXSP,2013-06-08 12:02:00,
2013-06-08 07:07:00,54.5,49.8,29.92,SSW,202,0.0,0.0,84,0.00,,,0.00,WUHU21636XXSP,2013-06-08 12:07:00,
2013-06-08 07:12:00,54.7,50.0,29.92,SSW,202,0.0,0.0,84,0.00,,,0.00,WUHU21636XXSP,2013-06-08 12:12:00,
2013-06-08 07:17:00,54.7,50.0,29.92,SSW,202,0.0,0.0,84,0.00,,,0.00,WUHU21636XXSP,2013-06-08 12:17:00,
2013-06-08 07:22:00,55.1,50.4,29.92,SSW,202,0.0,0.0,84,0.00,,,0.00,WUHU21636XXSP,2013-06-08 12:22:00,
2013-06-08 07:27:00,55.1,50.4,29.92,SSW,202,0.0,0.0,84,0.00,,,0.00,WUHU21636XXSP,2013-06-08 12:27:00,
2013-06-08 07:32:00,55.3,50.6,29.92,SSW,202,0.0,0.0,84,0.00,,,0.00,WUHU21636XXSP,2013-06-08 12:32:00,
2013-06-08 07:37:00,55.4,50.7,29.93,SSW,202,0.0,0.0,84,0.00,,,0.00,WUHU21636XXSP,2013-06-08 12:37:00,
2013-06-08 07:42:00,55.4,50.7,29.93,SSW,202,0.0,0.0,84,0.00,,,0.00,WUHU21636XXSP,2013-06-08 12:42:00,
2013-06-08 07:47:00,55.7,50.9,29.93,SSW,202,0.0,0.0,84,0.00,,,0.00,WUHU21636XXSP,2013-06-08 12:47:00,
2013-06-08 07:52:00,55.9,51.1,29.93,SSW,202,0.0,0.0,84,0.00,,,0.00,WUHU21636XXSP,2013-06-08 12:52:00,
2013-06-08 07:57:00,56.3,51.5,29.93,SSW,202,0.0,0.0,84,0.00,,,0.00,WUHU21636XXSP,2013-06-08 12:57:00,
2013-06-08 08:02:00,56.4,51.6,29.93,SSW,202,0.0,0.0,84,0.00,,,0.00,WUHU21636XXSP,2013-06-08 13:02:00,
2013-06-08 08:07:00,56.8,52.0,29.93,SSW,202,0.0,0.0,84,0.00,,,0.00,WUHU21636XXSP,2013-06-08 13:07:00,
2013-06-08 08:12:00,57.0,52.2,29.93,SSW,202,0.0,0.0,84,0.00,,,0.00,WUHU21636XXSP,2013-06-08 13:12:00,
2013-06-08 08:17:00,57.3,52.5,29.93,East,90,0.0,0.0,84,0.00,,,0.00,WUHU21636XXSP,2013-06-08 13:17:00,
2013-06-08 08:22:00,58.0,53.2,29.93,East,90,0.0,0.0,84,0.00,,,0.00,WUHU21636XXSP,2013-06-08 13:22:00,
2013-06-08 08:27:00,58.7,53.6,29.93,East,90,0.0,0.0,83,0.00,,,0.00,WUHU21636XXSP,2013-06-08 13:27:00,
2013-06-08 08:32:00,58.9,53.5,29.94,East,90,0.0,0.0,82,0.00,,,0.00,WUHU21636XXSP,2013-06-08 13:32:00,
2013-06-08 08:37:00,59.4,53.6,29.94,East,90,0.0,0.0,81,0.00,,,0.00,WUHU21636XXSP,2013-06-08 13:37:00,
2013-06-08 08:42:00,59.6,53.8,29.94,East,90,0.0,0.0,81,0.00,,,0.00,WUHU21636XXSP,2013-06-08 13:42:00,
2013-06-08 08:47:00,60.1,54.3,29.94,East,90,0.0,0.0,81,0.00,,,0.00,WUHU21636XXSP,2013-06-08 13:47:00,
2013-06-08 08:52:00,60.4,54.6,29.93,East,90,0.0,0.0,81,0.00,,,0.00,WUHU21636XXSP,2013-06-08 13:52:00,
2013-06-08 08:57:00,60.6,54.8,29.94,East,90,0.0,0.0,81,0.00,,,0.00,WUHU21636XXSP,2013-06-08 13:57:00,
2013-06-08 09:02:00,60.8,54.6,29.93,East,90,0.0,0.0,80,0.00,,,0.00,WUHU21636XXSP,2013-06-08 14:02:00,
2013-06-08 09:07:00,61.1,55.0,29.93,SE,135,0.0,0.0,80,0.00,,,0.00,WUHU21636XXSP,2013-06-08 14:07:00,
2013-06-08 09:12:00,61.3,54.1,29.93,SE,135,0.0,0.0,77,0.00,,,0.00,WUHU21636XXSP,2013-06-08 14:12:00,
2013-06-08 09:17:00,62.1,54.9,29.93,ENE,67,0.0,0.0,77,0.00,,,0.00,WUHU21636XXSP,2013-06-08 14:17:00,
2013-06-08 09:22:00,62.7,55.5,29.93,ENE,67,0.0,0.0,77,0.00,,,0.00,WUHU21636XXSP,2013-06-08 14:22:00,
2013-06-08 09:27:00,63.0,55.4,29.93,WSW,247,0.0,0.0,76,0.00,,,0.00,WUHU21636XXSP,2013-06-08 14:27:00,
2013-06-08 09:32:00,63.2,54.9,29.94,WSW,247,0.0,0.0,74,0.00,,,0.00,WUHU21636XXSP,2013-06-08 14:32:00,
2013-06-08 09:37:00,63.6,55.7,29.93,WSW,247,0.0,0.0,75,0.00,,,0.00,WUHU21636XXSP,2013-06-08 14:37:00,
2013-06-08 09:42:00,63.9,56.0,29.94,WSW,247,0.0,0.0,75,0.00,,,0.00,WUHU21636XXSP,2013-06-08 14:42:00,
2013-06-08 09:47:00,64.4,55.7,29.94,WSW,247,0.0,0.0,73,0.00,,,0.00,WUHU21636XXSP,2013-06-08 14:47:00,
2013-06-08 09:52:00,64.8,55.7,29.94,WSW,247,0.0,0.0,72,0.00,,,0.00,WUHU21636XXSP,2013-06-08 14:52:00,
2013-06-08 09:57:00,65.1,56.0,29.94,West,270,0.0,0.0,72,0.00,,,0.00,WUHU21636XXSP,2013-06-08 14:57:00,
2013-06-08 10:02:00,65.7,57.0,29.94,SW,225,0.0,0.0,73,0.00,,,0.00,WUHU21636XXSP,2013-06-08 15:02:00,
2013-06-08 10:07:00,66.0,56.5,29.94,WSW,247,0.0,0.0,71,0.00,,,0.00,WUHU21636XXSP,2013-06-08 15:07:00,
2013-06-08 10:12:00,66.5,56.9,29.93,SSW,202,0.0,0.0,71,0.00,,,0.00,WUHU21636XXSP,2013-06-08 15:12:00,
2013-06-08 10:17:00,66.7,56.3,29.93,WSW,247,0.0,0.0,69,0.00,,,0.00,WUHU21636XXSP,2013-06-08 15:17:00,
2013-06-08 10:22:00,66.8,56.8,29.93,WSW,247,0.0,0.0,70,0.00,,,0.00,WUHU21636XXSP,2013-06-08 15:22:00,
2013-06-08 10:27:00,67.4,57.5,29.94,SSE,157,0.0,0.0,70,0.00,,,0.00,WUHU21636XXSP,2013-06-08 15:27:00,
2013-06-08 10:32:00,67.7,57.0,29.94,SSE,157,0.0,0.0,68,0.00,,,0.00,WUHU21636XXSP,2013-06-08 15:32:00,
2013-06-08 10:37:00,67.9,57.2,29.94,SSE,157,0.0,0.0,68,0.00,,,0.00,WUHU21636XXSP,2013-06-08 15:37:00,
2013-06-08 10:42:00,68.4,56.7,29.94,SSW,202,0.0,0.0,66,0.00,,,0.00,WUHU21636XXSP,2013-06-08 15:42:00,
2013-06-08 10:47:00,68.7,55.8,29.94,WSW,247,0.0,0.0,63,0.00,,,0.00,WUHU21636XXSP,2013-06-08 15:47:00,
2013-06-08 10:52:00,68.7,57.5,29.94,SSW,202,0.0,0.0,67,0.00,,,0.00,WUHU21636XXSP,2013-06-08 15:52:00,
2013-06-08 10:57:00,68.7,55.8,29.94,West,270,0.0,0.0,63,0.00,,,0.00,WUHU21636XXSP,2013-06-08 15:57:00,
2013-06-08 11:02:00,68.7,56.2,29.94,West,270,0.0,0.0,64,0.00,,,0.00,WUHU21636XXSP,2013-06-08 16:02:00,
2013-06-08 11:07:00,69.1,56.1,29.94,WSW,247,0.0,0.0,63,0.00,,,0.00,WUHU21636XXSP,2013-06-08 16:07:00,
2013-06-08 11:12:00,69.6,56.2,29.94,SSW,202,0.0,0.0,62,0.00,,,0.00,WUHU21636XXSP,2013-06-08 16:12:00,
2013-06-08 11:17:00,69.6,55.3,29.94,WNW,292,5.2,5.2,60,0.00,,,0.00,WUHU21636XXSP,2013-06-08 16:17:00,
2013-06-08 11:22:00,69.3,55.5,29.94,SSE,157,0.0,5.2,61,0.00,,,0.00,WUHU21636XXSP,2013-06-08 16:22:00,
2013-06-08 11:27:00,69.6,56.2,29.94,East,90,0.0,0.0,62,0.00,,,0.00,WUHU21636XXSP,2013-06-08 16:27:00,
2013-06-08 11:32:00,69.8,55.5,29.94,WNW,292,0.0,4.0,60,0.00,,,0.00,WUHU21636XXSP,2013-06-08 16:32:00,
2013-06-08 11:38:00,70.0,55.2,29.94,SW,225,0.0,4.0,59,0.00,,,0.00,WUHU21636XXSP,2013-06-08 16:38:00,
2013-06-08 11:43:00,70.2,54.9,29.94,West,270,0.0,0.0,58,0.00,,,0.00,WUHU21636XXSP,2013-06-08 16:43:00,
2013-06-08 11:47:00,70.2,54.4,29.94,SE,135,0.0,0.0,57,0.00,,,0.00,WUHU21636XXSP,2013-06-08 16:47:00,
2013-06-08 11:52:00,70.2,55.4,29.94,WSW,247,0.0,0.0,59,0.00,,,0.00,WUHU21636XXSP,2013-06-08 16:52:00,
2013-06-08 11:57:00,70.2,54.4,29.94,WNW,292,0.0,0.0,57,0.00,,,0.00,WUHU21636XXSP,2013-06-08 16:57:00,
2013-06-08 12:02:00,70.2,54.9,29.94,West,270,0.0,0.0,58,0.00,,,0.00,WUHU21636XXSP,2013-06-08 17:02:00,
2013-06-08 12:07:00,70.2,54.9,29.94,WSW,247,0.0,0.0,58,0.00,,,0.00,WUHU21636XXSP,2013-06-08 17:07:00,
2013-06-08 12:12:00,70.5,55.1,29.94,West,270,0.0,0.0,58,0.00,,,0.00,WUHU21636XXSP,2013-06-08 17:12:00,
2013-06-08 12:17:00,70.8,55.9,29.94,WSW,247,0.0,0.0,59,0.00,,,0.00,WUHU21636XXSP,2013-06-08 17:17:00,
2013-06-08 12:22:00,71.0,56.1,29.94,WNW,292,0.0,0.0,59,0.00,,,0.00,WUHU21636XXSP,2013-06-08 17:22:00,
2013-06-08 12:27:00,71.2,55.8,29.93,ESE,112,0.0,0.0,58,0.00,,,0.00,WUHU21636XXSP,2013-06-08 17:27:00,
2013-06-08 12:32:00,71.5,56.6,29.93,SW,225,0.0,0.0,59,0.00,,,0.00,WUHU21636XXSP,2013-06-08 17:32:00,
2013-06-08 12:37:00,72.3,55.9,29.93,WSW,247,0.0,0.0,56,0.00,,,0.00,WUHU21636XXSP,2013-06-08 17:37:00,
2013-06-08 12:42:00,72.3,55.9,29.93,WSW,247,0.0,0.0,56,0.00,,,0.00,WUHU21636XXSP,2013-06-08 17:42:00,
2013-06-08 12:47:00,72.9,55.4,29.92,West,270,0.0,0.0,54,0.00,,,0.00,WUHU21636XXSP,2013-06-08 17:47:00,
2013-06-08 12:52:00,72.9,55.9,29.93,SE,135,0.0,0.0,55,0.00,,,0.00,WUHU21636XXSP,2013-06-08 17:52:00,
2013-06-08 12:57:00,72.9,54.9,29.93,WSW,247,0.0,0.0,53,0.00,,,0.00,WUHU21636XXSP,2013-06-08 17:57:00,
2013-06-08 13:02:00,73.1,56.6,29.93,ESE,112,0.0,0.0,56,0.00,,,0.00,WUHU21636XXSP,2013-06-08 18:02:00,
2013-06-08 13:08:00,73.3,55.8,29.92,West,270,0.0,0.0,54,0.00,,,0.00,WUHU21636XXSP,2013-06-08 18:08:00,
2013-06-08 13:13:00,72.4,56.0,29.93,West,270,0.0,0.0,56,0.00,,,0.00,WUHU21636XXSP,2013-06-08 18:13:00,
2013-06-08 13:18:00,72.1,57.2,29.92,West,270,0.0,0.0,59,0.00,,,0.00,WUHU21636XXSP,2013-06-08 18:18:00,
2013-06-08 13:23:00,71.4,55.0,29.92,West,270,0.0,0.0,56,0.00,,,0.00,WUHU21636XXSP,2013-06-08 18:23:00,
2013-06-08 13:28:00,71.2,56.3,29.92,West,270,0.0,0.0,59,0.00,,,0.00,WUHU21636XXSP,2013-06-08 18:28:00,
2013-06-08 13:33:00,72.1,56.7,29.92,SW,225,0.0,0.0,58,0.00,,,0.00,WUHU21636XXSP,2013-06-08 18:33:00,
2013-06-08 13:38:00,72.4,55.5,29.92,SW,225,0.0,0.0,55,0.00,,,0.00,WUHU21636XXSP,2013-06-08 18:38:00,
2013-06-08 13:43:00,73.4,57.4,29.93,SW,225,0.0,0.0,57,0.00,,,0.00,WUHU21636XXSP,2013-06-08 18:43:00,
2013-06-08 13:48:00,74.0,56.5,29.92,West,270,0.0,0.0,54,0.00,,,0.00,WUHU21636XXSP,2013-06-08 18:48:00,
2013-06-08 13:53:00,74.0,57.0,29.92,WSW,247,0.0,0.0,55,0.00,,,0.00,WUHU21636XXSP,2013-06-08 18:53:00,
2013-06-08 13:58:00,74.6,57.0,29.92,WSW,247,3.0,3.0,54,0.00,,,0.00,WUHU21636XXSP,2013-06-08 18:58:00,
2013-06-08 14:03:00,74.6,56.4,29.92,WSW,247,0.0,3.0,53,0.00,,,0.00,WUHU21636XXSP,2013-06-08 19:03:00,
2013-06-08 14:08:00,74.6,57.0,29.92,WNW,292,0.0,3.0,54,0.00,,,0.00,WUHU21636XXSP,2013-06-08 19:08:00,
2013-06-08 14:13:00,74.2,56.1,29.92,WSW,247,0.0,0.0,53,0.00,,,0.00,WUHU21636XXSP,2013-06-08 19:13:00,
2013-06-08 14:18:00,74.3,58.3,29.92,WSW,247,0.0,0.0,57,0.00,,,0.00,WUHU21636XXSP,2013-06-08 19:18:00,
2013-06-08 14:23:00,74.0,56.5,29.92,SSE,157,0.0,0.0,54,0.00,,,0.00,WUHU21636XXSP,2013-06-08 19:23:00,
2013-06-08 14:28:00,74.0,57.0,29.92,SSE,157,0.0,0.0,55,0.00,,,0.00,WUHU21636XXSP,2013-06-08 19:28:00,
2013-06-08 14:33:00,74.3,56.2,29.92,WNW,292,0.0,0.0,53,0.00,,,0.00,WUHU21636XXSP,2013-06-08 19:33:00,
2013-06-08 14:38:00,73.3,57.8,29.93,West,270,0.0,0.0,58,0.00,,,0.00,WUHU21636XXSP,2013-06-08 19:38:00,
2013-06-08 14:43:00,72.4,58.0,29.93,ESE,112,0.0,0.0,60,0.00,,,0.00,WUHU21636XXSP,2013-06-08 19:43:00,
2013-06-08 14:48:00,72.1,57.7,29.93,South,180,0.0,0.0,60,0.00,,,0.00,WUHU21636XXSP,2013-06-08 19:48:00,
2013-06-08 14:53:00,71.5,58.0,29.93,South,180,0.0,0.0,62,0.00,,,0.00,WUHU21636XXSP,2013-06-08 19:53:00,
2013-06-08 14:58:00,71.2,58.1,29.93,SW,225,0.0,0.0,63,0.00,,,0.00,WUHU21636XXSP,2013-06-08 19:58:00,
2013-06-08 15:03:00,70.6,58.0,29.93,SSE,157,0.0,0.0,64,0.00,,,0.00,WUHU21636XXSP,2013-06-08 20:03:00,
2013-06-08 15:07:00,70.2,58.1,29.93,WSW,247,0.0,0.0,65,0.00,,,0.00,WUHU21636XXSP,2013-06-08 20:07:00,
2013-06-08 15:13:00,69.8,57.7,29.93,WSW,247,0.0,0.0,65,0.00,,,0.00,WUHU21636XXSP,2013-06-08 20:13:00,
2013-06-08 15:18:00,69.8,58.6,29.94,SSW,202,0.0,0.0,67,0.00,,,0.00,WUHU21636XXSP,2013-06-08 20:18:00,
2013-06-08 15:23:00,70.2,58.5,29.94,SSE,157,0.0,0.0,66,0.00,,,0.00,WUHU21636XXSP,2013-06-08 20:23:00,
2013-06-08 15:28:00,70.6,58.4,29.94,SSW,202,0.0,0.0,65,0.00,,,0.00,WUHU21636XXSP,2013-06-08 20:28:00,
2013-06-08 15:33:00,70.2,58.1,29.94,WSW,247,0.0,0.0,65,0.00,,,0.00,WUHU21636XXSP,2013-06-08 20:33:00,
2013-06-08 15:38:00,69.6,57.9,29.94,SSW,202,0.0,0.0,66,0.00,,,0.00,WUHU21636XXSP,2013-06-08 20:38:00,
2013-06-08 15:43:00,70.5,59.6,29.94,South,180,4.8,4.8,68,0.00,,,0.00,WUHU21636XXSP,2013-06-08 20:43:00,
2013-06-08 15:48:00,70.8,58.6,29.94,WSW,247,0.0,4.8,65,0.00,,,0.00,WUHU21636XXSP,2013-06-08 20:48:00,
2013-06-08 15:53:00,70.6,58.4,29.93,South,180,0.0,4.8,65,0.00,,,0.00,WUHU21636XXSP,2013-06-08 20:53:00,
2013-06-08 15:58:00,70.6,58.4,29.94,WSW,247,0.0,0.0,65,0.00,,,0.00,WUHU21636XXSP,2013-06-08 20:58:00,
2013-06-08 16:03:00,70.5,58.7,29.94,SSE,157,0.0,0.0,66,0.00,,,0.00,WUHU21636XXSP,2013-06-08 21:03:00,
2013-06-08 16:08:00,70.6,58.8,29.94,South,180,0.0,0.0,66,0.00,,,0.00,WUHU21636XXSP,2013-06-08 21:08:00,
2013-06-08 16:13:00,71.2,59.4,29.94,South,180,0.0,0.0,66,0.00,,,0.00,WUHU21636XXSP,2013-06-08 21:13:00,
2013-06-08 16:18:00,71.4,59.6,29.93,South,180,0.0,0.0,66,0.00,,,0.00,WUHU21636XXSP,2013-06-08 21:18:00,
2013-06-08 16:23:00,71.0,58.8,29.94,West,270,0.0,0.0,65,0.00,,,0.00,WUHU21636XXSP,2013-06-08 21:23:00,
2013-06-08 16:28:00,71.0,59.2,29.94,SW,225,0.0,0.0,66,0.00,,,0.00,WUHU21636XXSP,2013-06-08 21:28:00,
2013-06-08 16:33:00,70.8,59.0,29.94,ESE,112,0.0,0.0,66,0.00,,,0.00,WUHU21636XXSP,2013-06-08 21:33:00,
2013-06-08 16:38:00,70.5,58.7,29.94,SSE,157,0.0,0.0,66,0.00,,,0.00,WUHU21636XXSP,2013-06-08 21:38:00,
2013-06-08 16:43:00,70.2,59.0,29.94,SSE,157,0.0,0.0,67,0.00,,,0.00,WUHU21636XXSP,2013-06-08 21:43:00,
2013-06-08 16:48:00,69.8,59.0,29.94,SSE,157,0.0,0.0,68,0.00,,,0.00,WUHU21636XXSP,2013-06-08 21:48:00,
2013-06-08 16:53:00,69.8,59.0,29.94,SSE,157,0.0,0.0,68,0.00,,,0.00,WUHU21636XXSP,2013-06-08 21:53:00,
2013-06-08 16:57:00,69.3,58.9,29.94,SSE,157,0.0,0.0,69,0.00,,,0.00,WUHU21636XXSP,2013-06-08 21:57:00,
2013-06-08 17:02:00,68.9,58.5,29.94,SSE,157,0.0,0.0,69,0.00,,,0.00,WUHU21636XXSP,2013-06-08 22:02:00,
2013-06-08 17:07:00,68.7,58.3,29.94,SSE,157,0.0,0.0,69,0.00,,,0.00,WUHU21636XXSP,2013-06-08 22:07:00,
2013-06-08 17:12:00,68.6,58.2,29.94,SSE,157,0.0,0.0,69,0.00,,,0.00,WUHU21636XXSP,2013-06-08 22:12:00,
2013-06-08 17:17:00,68.7,58.7,29.94,SSE,157,0.0,0.0,70,0.00,,,0.00,WUHU21636XXSP,2013-06-08 22:17:00,
2013-06-08 17:22:00,68.7,58.3,29.94,South,180,0.0,0.0,69,0.00,,,0.00,WUHU21636XXSP,2013-06-08 22:22:00,
2013-06-08 17:27:00,68.6,58.6,29.94,South,180,0.0,0.0,70,0.00,,,0.00,WUHU21636XXSP,2013-06-08 22:27:00,
2013-06-08 17:32:00,68.6,58.2,29.94,South,180,0.0,0.0,69,0.00,,,0.00,WUHU21636XXSP,2013-06-08 22:32:00,
2013-06-08 17:37:00,68.4,57.6,29.94,South,180,0.0,0.0,68,0.00,,,0.00,WUHU21636XXSP,2013-06-08 22:37:00,
2013-06-08 17:42:00,68.4,57.6,29.94,South,180,0.0,0.0,68,0.00,,,0.00,WUHU21636XXSP,2013-06-08 22:42:00,
2013-06-08 17:47:00,68.1,57.8,29.94,SSE,157,0.0,0.0,69,0.00,,,0.00,WUHU21636XXSP,2013-06-08 22:47:00,
2013-06-08 17:52:00,68.4,58.0,29.94,SSE,157,0.0,0.0,69,0.00,,,0.00,WUHU21636XXSP,2013-06-08 22:52:00,
2013-06-08 17:57:00,68.4,58.4,29.93,SSE,157,0.0,0.0,70,0.00,,,0.00,WUHU21636XXSP,2013-06-08 22:57:00,
2013-06-08 18:02:00,68.4,58.0,29.93,SSE,157,0.0,0.0,69,0.00,,,0.00,WUHU21636XXSP,2013-06-08 23:02:00,
2013-06-08 18:07:00,68.7,57.9,29.92,SSW,202,0.0,0.0,68,0.00,,,0.00,WUHU21636XXSP,2013-06-08 23:07:00,
2013-06-08 18:12:00,68.6,57.8,29.92,SSW,202,0.0,0.0,68,0.00,,,0.00,WUHU21636XXSP,2013-06-08 23:12:00,
2013-06-08 18:17:00,68.7,58.3,29.93,SSW,202,0.0,0.0,69,0.00,,,0.00,WUHU21636XXSP,2013-06-08 23:17:00,
2013-06-08 18:22:00,68.6,57.8,29.92,SSW,202,0.0,0.0,68,0.00,,,0.00,WUHU21636XXSP,2013-06-08 23:22:00,
2013-06-08 18:27:00,68.7,57.9,29.93,SSW,202,0.0,0.0,68,0.00,,,0.00,WUHU21636XXSP,2013-06-08 23:27:00,
2013-06-08 18:32:00,68.7,57.9,29.93,SSW,202,0.0,0.0,68,0.00,,,0.00,WUHU21636XXSP,2013-06-08 23:32:00,
2013-06-08 18:37:00,68.7,57.9,29.93,SSW,202,0.0,0.0,68,0.00,,,0.00,WUHU21636XXSP,2013-06-08 23:37:00,
2013-06-08 18:43:00,68.7,58.3,29.93,SSW,202,0.0,0.0,69,0.00,,,0.00,WUHU21636XXSP,2013-06-08 23:43:00,
2013-06-08 18:48:00,68.6,58.2,29.93,SSW,202,0.0,0.0,69,0.00,,,0.00,WUHU21636XXSP,2013-06-08 23:48:00,
2013-06-08 18:52:00,68.4,58.0,29.93,South,180,0.0,0.0,69,0.00,,,0.00,WUHU21636XXSP,2013-06-08 23:52:00,
2013-06-08 18:57:00,68.1,57.4,29.93,South,180,0.0,0.0,68,0.00,,,0.00,WUHU21636XXSP,2013-06-08 23:57:00,
2013-06-08 19:03:00,68.1,57.8,29.93,South,180,0.0,0.0,69,0.00,,,0.00,WUHU21636XXSP,2013-06-09 00:03:00,
2013-06-08 19:08:00,68.4,58.0,29.93,South,180,0.0,0.0,69,0.00,,,0.00,WUHU21636XXSP,2013-06-09 00:08:00,
2013-06-08 19:13:00,68.4,58.0,29.93,South,180,0.0,0.0,69,0.00,,,0.00,WUHU21636XXSP,2013-06-09 00:13:00,
2013-06-08 19:18:00,68.1,58.2,29.93,South,180,0.0,0.0,70,0.00,,,0.00,WUHU21636XXSP,2013-06-09 00:18:00,
2013-06-08 19:22:00,67.9,58.0,29.93,South,180,0.0,0.0,70,0.00,,,0.00,WUHU21636XXSP,2013-06-09 00:22:00,
2013-06-08 19:27:00,67.9,58.3,29.93,South,180,0.0,0.0,71,0.00,,,0.00,WUHU21636XXSP,2013-06-09 00:27:00,
2013-06-08 19:32:00,67.9,58.3,29.93,South,180,0.0,0.0,71,0.00,,,0.00,WUHU21636XXSP,2013-06-09 00:32:00,
2013-06-08 19:38:00,67.7,58.1,29.93,South,180,0.0,0.0,71,0.00,,,0.00,WUHU21636XXSP,2013-06-09 00:38:00,
2013-06-08 19:43:00,67.4,57.8,29.93,South,180,0.0,0.0,71,0.00,,,0.00,WUHU21636XXSP,2013-06-09 00:43:00,
2013-06-08 19:47:00,67.2,57.6,29.93,South,180,0.0,0.0,71,0.00,,,0.00,WUHU21636XXSP,2013-06-09 00:47:00,
2013-06-08 19:53:00,67.0,57.4,29.93,South,180,0.0,0.0,71,0.00,,,0.00,WUHU21636XXSP,2013-06-09 00:53:00,
2013-06-08 19:58:00,66.8,57.2,29.93,South,180,0.0,0.0,71,0.00,,,0.00,WUHU21636XXSP,2013-06-09 00:58:00,
2013-06-08 20:03:00,66.7,57.5,29.93,South,180,0.0,0.0,72,0.00,,,0.00,WUHU21636XXSP,2013-06-09 01:03:00,
2013-06-08 20:07:00,66.5,57.7,29.93,South,180,0.0,0.0,73,0.00,,,0.00,WUHU21636XXSP,2013-06-09 01:07:00,
2013-06-08 20:12:00,66.0,57.3,29.93,South,180,0.0,0.0,73,0.00,,,0.00,WUHU21636XXSP,2013-06-09 01:12:00,
2013-06-08 20:18:00,65.8,56.7,29.93,South,180,0.0,0.0,72,0.00,,,0.00,WUHU21636XXSP,2013-06-09 01:18:00,
2013-06-08 20:22:00,65.8,56.7,29.93,South,180,0.0,0.0,72,0.00,,,0.00,WUHU21636XXSP,2013-06-09 01:22:00,
2013-06-08 20:28:00,65.5,56.4,29.93,South,180,0.0,0.0,72,0.00,,,0.00,WUHU21636XXSP,2013-06-09 01:28:00,
2013-06-08 20:33:00,65.3,56.6,29.93,South,180,0.0,0.0,73,0.00,,,0.00,WUHU21636XXSP,2013-06-09 01:33:00,
2013-06-08 20:38:00,65.1,56.4,29.93,South,180,0.0,0.0,73,0.00,,,0.00,WUHU21636XXSP,2013-06-09 01:38:00,
2013-06-08 20:43:00,64.9,56.2,29.93,South,180,0.0,0.0,73,0.00,,,0.00,WUHU21636XXSP,2013-06-09 01:43:00,
2013-06-08 20:48:00,64.8,56.1,29.93,South,180,0.0,0.0,73,0.00,,,0.00,WUHU21636XXSP,2013-06-09 01:48:00,
2013-06-08 20:53:00,64.6,55.9,29.93,South,180,0.0,0.0,73,0.00,,,0.00,WUHU21636XXSP,2013-06-09 01:53:00,
2013-06-08 20:58:00,64.2,55.8,29.92,South,180,0.0,0.0,74,0.00,,,0.00,WUHU21636XXSP,2013-06-09 01:58:00,
2013-06-08 21:03:00,63.9,55.6,29.93,South,180,0.0,0.0,74,0.00,,,0.00,WUHU21636XXSP,2013-06-09 02:03:00,
2013-06-08 21:08:00,63.8,55.5,29.93,South,180,0.0,0.0,74,0.00,,,0.00,WUHU21636XXSP,2013-06-09 02:08:00,
2013-06-08 21:13:00,63.4,55.1,29.93,South,180,0.0,0.0,74,0.00,,,0.00,WUHU21636XXSP,2013-06-09 02:13:00,
2013-06-08 21:18:00,63.2,55.3,29.93,South,180,0.0,0.0,75,0.00,,,0.00,WUHU21636XXSP,2013-06-09 02:18:00,
2013-06-08 21:23:00,63.0,55.4,29.93,South,180,0.0,0.0,76,0.00,,,0.00,WUHU21636XXSP,2013-06-09 02:23:00,
2013-06-08 21:28:00,62.9,55.3,29.93,South,180,0.0,0.0,76,0.00,,,0.00,WUHU21636XXSP,2013-06-09 02:28:00,
2013-06-08 21:33:00,62.7,55.1,29.93,South,180,0.0,0.0,76,0.00,,,0.00,WUHU21636XXSP,2013-06-09 02:33:00,
2013-06-08 21:38:00,62.7,55.1,29.93,South,180,0.0,0.0,76,0.00,,,0.00,WUHU21636XXSP,2013-06-09 02:38:00,
2013-06-08 21:43:00,62.3,54.7,29.93,South,180,0.0,0.0,76,0.00,,,0.00,WUHU21636XXSP,2013-06-09 02:43:00,
2013-06-08 21:48:00,62.1,54.5,29.93,South,180,0.0,0.0,76,0.00,,,0.00,WUHU21636XXSP,2013-06-09 02:48:00,
2013-06-08 21:53:00,62.1,54.5,29.94,South,180,0.0,0.0,76,0.00,,,0.00,WUHU21636XXSP,2013-06-09 02:53:00,
2013-06-08 21:58:00,62.1,54.9,29.93,South,180,0.0,0.0,77,0.00,,,0.00,WUHU21636XXSP,2013-06-09 02:58:00,
2013-06-08 22:03:00,62.0,54.7,29.93,South,180,0.0,0.0,77,0.00,,,0.00,WUHU21636XXSP,2013-06-09 03:03:00,
2013-06-08 22:08:00,61.7,54.9,29.93,South,180,0.0,0.0,78,0.00,,,0.00,WUHU21636XXSP,2013-06-09 03:08:00,
2013-06-08 22:13:00,61.7,54.9,29.93,South,180,0.0,0.0,78,0.00,,,0.00,WUHU21636XXSP,2013-06-09 03:13:00,
2013-06-08 22:18:00,61.5,54.0,29.94,South,180,0.0,0.0,76,0.00,,,0.00,WUHU21636XXSP,2013-06-09 03:18:00,
2013-06-08 22:23:00,61.5,54.3,29.93,South,180,0.0,0.0,77,0.00,,,0.00,WUHU21636XXSP,2013-06-09 03:23:00,
2013-06-08 22:28:00,61.3,54.1,29.94,South,180,0.0,0.0,77,0.00,,,0.00,WUHU21636XXSP,2013-06-09 03:28:00,
2013-06-08 22:33:00,61.3,54.1,29.93,South,180,0.0,0.0,77,0.00,,,0.00,WUHU21636XXSP,2013-06-09 03:33:00,
2013-06-08 22:38:00,61.3,53.8,29.93,SSW,202,0.0,0.0,76,0.00,,,0.00,WUHU21636XXSP,2013-06-09 03:38:00,
2013-06-08 22:43:00,61.3,52.7,29.93,East,90,0.0,0.0,73,0.00,,,0.00,WUHU21636XXSP,2013-06-09 03:43:00,
2013-06-08 22:48:00,61.3,53.1,29.94,SE,135,0.0,0.0,74,0.00,,,0.00,WUHU21636XXSP,2013-06-09 03:48:00,
2013-06-08 22:53:00,61.3,52.7,29.94,SE,135,0.0,0.0,73,0.00,,,0.00,WUHU21636XXSP,2013-06-09 03:53:00,
2013-06-08 22:58:00,61.3,52.3,29.94,SE,135,0.0,0.0,72,0.00,,,0.00,WUHU21636XXSP,2013-06-09 03:58:00,
2013-06-08 23:01:00,61.3,52.7,29.94,SE,135,0.0,0.0,73,0.00,,,0.00,WUHU21636XXSP,2013-06-09 04:01:00,
2013-06-08 23:02:00,61.3,52.7,29.94,SE,135,0.0,0.0,73,0.00,,,0.00,WUHU21636XXSP,2013-06-09 04:02:00,
2013-06-08 23:07:00,61.3,52.3,29.94,SE,135,0.0,0.0,72,0.00,,,0.00,WUHU21636XXSP,2013-06-09 04:07:00,
2013-06-08 23:12:00,61.3,52.3,29.94,SE,135,0.0,0.0,72,0.00,,,0.00,WUHU21636XXSP,2013-06-09 04:12:00,
2013-06-08 23:17:00,61.3,52.0,29.94,SE,135,0.0,0.0,71,0.00,,,0.00,WUHU21636XXSP,2013-06-09 04:17:00,
2013-06-08 23:22:00,61.5,52.2,29.94,SE,135,0.0,0.0,71,0.00,,,0.00,WUHU21636XXSP,2013-06-09 04:22:00,
2013-06-08 23:27:00,61.5,51.8,29.94,WSW,247,0.0,0.0,70,0.00,,,0.00,WUHU21636XXSP,2013-06-09 04:27:00,
2013-06-08 23:32:00,61.5,51.8,29.94,SSE,157,0.0,0.0,70,0.00,,,0.00,WUHU21636XXSP,2013-06-09 04:32:00,
2013-06-08 23:37:00,61.5,51.8,29.94,SSW,202,0.0,0.0,70,0.00,,,0.00,WUHU21636XXSP,2013-06-09 04:37:00,
2013-06-08 23:42:00,61.5,51.4,29.94,SSW,202,0.0,0.0,69,0.00,,,0.00,WUHU21636XXSP,2013-06-09 04:42:00,
2013-06-08 23:47:00,61.7,51.6,29.94,SW,225,0.0,0.0,69,0.00,,,0.00,WUHU21636XXSP,2013-06-09 04:47:00,
2013-06-08 23:52:00,61.7,50.8,29.94,SW,225,0.0,0.0,67,0.00,,,0.00,WUHU21636XXSP,2013-06-09 04:52:00,
2013-06-08 23:57:00,62.0,51.4,29.94,SW,225,0.0,0.0,68,0.00,,,0.00,WUHU21636XXSP,2013-06-09 04:57:00,